Location: Antin
(43.3330°N, 0.2804°E)
Time: 22:29:02
(UTC+00:00)

Okean 1-7 Rocket - Pass Details

Date: 16 October 2021
Orbit: 617 x 648 km, 82.5° (Epoch: 04 December)

Event Time Altitude Azimuth Distance (km) Brightness Sun altitude
Rises 18:15:55 0° 2° (N) 2,901 7.0 -12.0°
Reaches altitude 10° 18:18:26 10° 15° (NNE) 1,992 6.0 -12.5°
Maximum altitude 18:22:12 27° 74° (ENE) 1,201 4.5 -13.1°
Enters shadow 18:24:36 17° 119° (ESE) 1,571 5.1 -13.6°
